User: anonymous   Login
Location: Barrio Las Umbrías
(40.4173°N, 4.8685°W)
Time: 05:57:16
(UTC+00:00)
Language:

Cosmos 1943 - Orbit

View from above orbital plane
View from above orbital plane
View from above satellite
View from above satellite

Ground track
Ground track

The orbit data is extracted from the following two-line orbital elements,

1 19119U 88039A   22340.84890272 -.00000046  00000-0  91869-6 0  9990
2 19119  71.0039 224.1405 0013967 259.9280 149.5453 14.15249476784588
Epoch (UTC): 06 December 2022 20:22:25
Eccentricity: 0.0013967
inclination: 71.0039°
perigee height: 831 km
apogee height: 851 km
right ascension of ascending node: 224.1405°
argument of perigee: 259.9280°
revolutions per day: 14.15249476
mean anomaly at epoch: 149.5453°
orbit number at epoch: 78458

The dashed part of the orbit path shows where the satellite is in the earth's shadow,  

DLR